<?xml version="1.0" encoding="UTF-8" standalone="no" ?><gpx xmlns="http://www.topografix.com/GPX/1/1" xmlns:gpxx="http://www.garmin.com/xmlschemas/GpxExtensions/v3" xmlns:wptx1="http://www.garmin.com/xmlschemas/WaypointExtension/v1" xmlns:gpxtpx="http://www.garmin.com/xmlschemas/TrackPointExtension/v1" creator="GuideVTT.com" version="1.1" xmlns:xsi="http://www.w3.org/2001/XMLSchema-instance" xsi:schemaLocation="http://www.topografix.com/GPX/1/1 http://www.topografix.com/GPX/1/1/gpx.xsd http://www.garmin.com/xmlschemas/GpxExtensions/v3 http://www8.garmin.com/xmlschemas/GpxExtensionsv3.xsd http://www.garmin.com/xmlschemas/WaypointExtension/v1 http://www8.garmin.com/xmlschemas/WaypointExtensionv1.xsd http://www.garmin.com/xmlschemas/TrackPointExtension/v1 http://www.garmin.com/xmlschemas/TrackPointExtensionv1.xsd">
<metadata><link href="http://www.garmin.com"><text>Garmin International</text></link><time>2013-06-22T15:13:50Z</time></metadata>
<trk><name>20100606travaille2.gpx</name><extensions><gpxx:TrackExtension><gpxx:DisplayColor>Cyan</gpxx:DisplayColor></gpxx:TrackExtension></extensions><trkseg>
<trkpt lat="46.35057874" lon="7.00954087"><ele></ele><time>2014-5-13T10:32:3Z</time></trkpt>
<trkpt lat="46.36316241" lon="7.02463978"><ele></ele><time>2014-5-13T10:32:6Z</time></trkpt>
<trkpt lat="46.35708687" lon="7.02139741"><ele></ele><time>2014-5-13T10:32:9Z</time></trkpt>
<trkpt lat="46.37036640" lon="7.02631976"><ele></ele><time>2014-5-13T10:32:12Z</time></trkpt>
<trkpt lat="46.37036640" lon="7.02631976"><ele></ele><time>2014-5-13T10:32:15Z</time></trkpt>
<trkpt lat="46.33880384" lon="7.00704139"><ele></ele><time>2014-5-13T10:32:18Z</time></trkpt>
<trkpt lat="46.33880384" lon="7.00704139"><ele></ele><time>2014-5-13T10:32:21Z</time></trkpt>
<trkpt lat="47.62420440" lon="1.93005642"><ele></ele><time>2014-5-13T10:32:24Z</time></trkpt>
<trkpt lat="46.56986265" lon="6.68918562"><ele></ele><time>2014-5-13T10:32:27Z</time></trkpt>
<trkpt lat="46.34269212" lon="7.01105079"><ele></ele><time>2014-5-13T10:32:30Z</time></trkpt>
<trkpt lat="46.34269212" lon="7.01105079"><ele></ele><time>2014-5-13T10:32:33Z</time></trkpt>
<trkpt lat="47.61929118" lon="1.93647402"><ele></ele><time>2014-5-13T10:32:36Z</time></trkpt>
<trkpt lat="38.85554999" lon="-94.79901667"><ele></ele><time>2014-5-13T10:32:39Z</time></trkpt>
<trkpt lat="50.98288329" lon="-1.46389998"><ele></ele><time>2014-5-13T10:32:42Z</time></trkpt>
<trkpt lat="33.33018995" lon="-111.94611001"><ele></ele><time>2014-5-13T10:32:45Z</time></trkpt>
<trkpt lat="25.06178336" lon="121.64026667"><ele></ele><time>2014-5-13T10:32:48Z</time></trkpt>
<trkpt lat="46.35672150" lon="7.01535464"><ele></ele><time>2014-5-13T10:32:51Z</time></trkpt>
<trkpt lat="46.34961692" lon="7.00685799"><ele></ele><time>2014-5-13T10:32:54Z</time></trkpt>
<trkpt lat="46.58114126" lon="6.59533186"><ele></ele><time>2014-5-13T10:32:57Z</time></trkpt>
<trkpt lat="46.58114126" lon="6.59533186"><ele></ele><time>2014-5-13T10:33:0Z</time></trkpt>
<trkpt lat="44.62174022" lon="4.28196355"><ele></ele><time>2014-5-13T10:33:3Z</time></trkpt>
<trkpt lat="46.56315755" lon="6.60320263"><ele></ele><time>2014-5-13T10:33:6Z</time></trkpt>
<trkpt lat="46.56315755" lon="6.60320263"><ele></ele><time>2014-5-13T10:33:9Z</time></trkpt>
<trkpt lat="46.56315755" lon="6.60320263"><ele></ele><time>2014-5-13T10:33:12Z</time></trkpt>
<trkpt lat="46.36632155" lon="7.01482248"><ele></ele><time>2014-5-13T10:33:15Z</time></trkpt>
<trkpt lat="46.36632155" lon="7.01482248"><ele></ele><time>2014-5-13T10:33:18Z</time></trkpt>
<trkpt lat="46.35303497" lon="7.02502728"><ele></ele><time>2014-5-13T10:33:21Z</time></trkpt>
<trkpt lat="46.38977051" lon="7.09442139"><ele></ele><time>2014-5-13T10:33:24Z</time></trkpt>
<trkpt lat="46.34582520" lon="7.00927734"><ele></ele><time>2014-5-13T10:33:27Z</time></trkpt>
<trkpt lat="46.34355068" lon="7.01309681"><ele></ele><time>2014-5-13T10:33:30Z</time></trkpt>
<trkpt lat="46.37432098" lon="7.07706213"><ele></ele><time>2014-5-13T10:33:33Z</time></trkpt>
<trkpt lat="46.36822701" lon="7.07646132"><ele></ele><time>2014-5-13T10:33:36Z</time></trkpt>
<trkpt lat="46.36088848" lon="7.06169844"><ele></ele><time>2014-5-13T10:33:39Z</time></trkpt>
<trkpt lat="46.35867834" lon="7.04684973"><ele></ele><time>2014-5-13T10:33:42Z</time></trkpt>
<trkpt lat="46.56310374" lon="6.60283333"><ele></ele><time>2014-5-13T10:33:45Z</time></trkpt>
<trkpt lat="46.56271935" lon="6.60304070"><ele></ele><time>2014-5-13T10:33:48Z</time></trkpt>
<trkpt lat="46.56263351" lon="6.60377026"><ele></ele><time>2014-5-13T10:33:51Z</time></trkpt>
<trkpt lat="46.58082962" lon="6.60587311"><ele></ele><time>2014-5-13T10:33:54Z</time></trkpt>
<trkpt lat="46.58095837" lon="6.60578728"><ele></ele><time>2014-5-13T10:33:57Z</time></trkpt>
<trkpt lat="46.58258915" lon="6.60050869"><ele></ele><time>2014-5-13T10:34:0Z</time></trkpt>
<trkpt lat="46.58267498" lon="6.60020828"><ele></ele><time>2014-5-13T10:34:3Z</time></trkpt>
<trkpt lat="46.58082962" lon="6.59570217"><ele></ele><time>2014-5-13T10:34:6Z</time></trkpt>
<trkpt lat="46.56310374" lon="6.60283333"><ele></ele><time>2014-5-13T10:34:9Z</time></trkpt>
<trkpt lat="46.56271935" lon="6.60304070"><ele></ele><time>2014-5-13T10:34:12Z</time></trkpt>
<trkpt lat="46.56263351" lon="6.60377026"><ele></ele><time>2014-5-13T10:34:15Z</time></trkpt>
<trkpt lat="46.55696869" lon="6.60132408"><ele></ele><time>2014-5-13T10:34:18Z</time></trkpt>
<trkpt lat="46.55417919" lon="6.62033558"><ele></ele><time>2014-5-13T10:34:21Z</time></trkpt>
<trkpt lat="46.55143261" lon="6.62093639"><ele></ele><time>2014-5-13T10:34:24Z</time></trkpt>
<trkpt lat="46.55104637" lon="6.62372589"><ele></ele><time>2014-5-13T10:34:27Z</time></trkpt>
<trkpt lat="46.54868603" lon="6.62381172"><ele></ele><time>2014-5-13T10:34:30Z</time></trkpt>
<trkpt lat="46.32123470" lon="6.94001198"><ele></ele><time>2014-5-13T10:34:33Z</time></trkpt>
<trkpt lat="46.32071972" lon="6.93863869"><ele></ele><time>2014-5-13T10:34:36Z</time></trkpt>
<trkpt lat="46.32312298" lon="6.95138454"><ele></ele><time>2014-5-13T10:34:39Z</time></trkpt>
<trkpt lat="46.32719994" lon="6.95898056"><ele></ele><time>2014-5-13T10:34:42Z</time></trkpt>
<trkpt lat="46.31913185" lon="6.97048187"><ele></ele><time>2014-5-13T10:34:45Z</time></trkpt>
<trkpt lat="46.31896019" lon="6.97078228"><ele></ele><time>2014-5-13T10:34:48Z</time></trkpt>
<trkpt lat="46.32183552" lon="7.00073719"><ele></ele><time>2014-5-13T10:34:51Z</time></trkpt>
<trkpt lat="46.36110306" lon="7.04923153"><ele></ele><time>2014-5-13T10:34:54Z</time></trkpt>
<trkpt lat="46.36054516" lon="7.05395222"><ele></ele><time>2014-5-13T10:34:57Z</time></trkpt>
<trkpt lat="46.36256218" lon="7.05051899"><ele></ele><time>2014-5-13T10:35:0Z</time></trkpt>
<trkpt lat="46.35436535" lon="7.03494072"><ele></ele><time>2014-5-13T10:35:3Z</time></trkpt>
<trkpt lat="46.34191990" lon="7.01743126"><ele></ele><time>2014-5-13T10:35:6Z</time></trkpt>
<trkpt lat="46.34264946" lon="7.01352596"><ele></ele><time>2014-5-13T10:35:9Z</time></trkpt>
<trkpt lat="46.34282112" lon="7.01331139"><ele></ele><time>2014-5-13T10:35:12Z</time></trkpt>
<trkpt lat="46.34294987" lon="7.01331139"><ele></ele><time>2014-5-13T10:35:15Z</time></trkpt>
<trkpt lat="46.34307861" lon="7.01271057"><ele></ele><time>2014-5-13T10:35:18Z</time></trkpt>
<trkpt lat="46.35008396" lon="7.15524391"><ele></ele><time>2014-5-13T10:35:21Z</time></trkpt>
<trkpt lat="46.35008396" lon="7.15524391"><ele></ele><time>2014-5-13T10:35:24Z</time></trkpt>
<trkpt lat="46.36064725" lon="7.00961044"><ele></ele><time>2014-5-13T10:35:27Z</time></trkpt>
<trkpt lat="46.36064725" lon="7.00961044"><ele></ele><time>2014-5-13T10:35:30Z</time></trkpt>
<trkpt lat="46.35950496" lon="7.00221173"><ele></ele><time>2014-5-13T10:35:33Z</time></trkpt>
<trkpt lat="46.09371331" lon="7.23317659"><ele></ele><time>2014-5-13T10:35:36Z</time></trkpt>
<trkpt lat="46.34672491" lon="7.01796770"><ele></ele><time>2014-5-13T10:35:39Z</time></trkpt>
<trkpt lat="46.34672491" lon="7.01796770"><ele></ele><time>2014-5-13T10:35:42Z</time></trkpt>
<trkpt lat="46.57982497" lon="6.60320330"><ele></ele><time>2014-5-13T10:35:45Z</time></trkpt>
<trkpt lat="46.69453064" lon="6.76001539"><ele></ele><time>2014-5-13T10:35:48Z</time></trkpt>
<trkpt lat="" lon=""><ele></ele><time>2014-5-13T10:35:51Z</time></trkpt>
<trkpt lat="46.67462111" lon="6.80060148"><ele></ele><time>2014-5-13T10:35:54Z</time></trkpt>
<trkpt lat="46.67444944" lon="6.80042982"><ele></ele><time>2014-5-13T10:35:57Z</time></trkpt>
<trkpt lat="46.67438507" lon="6.80032253"><ele></ele><time>2014-5-13T10:36:0Z</time></trkpt>
<trkpt lat="46.67387009" lon="6.79942131"><ele></ele><time>2014-5-13T10:36:3Z</time></trkpt>
<trkpt lat="46.67337656" lon="6.79858446"><ele></ele><time>2014-5-13T10:36:6Z</time></trkpt>
<trkpt lat="46.67341948" lon="6.79832697"><ele></ele><time>2014-5-13T10:36:9Z</time></trkpt>
<trkpt lat="46.67301178" lon="6.79789782"><ele></ele><time>2014-5-13T10:36:12Z</time></trkpt>
<trkpt lat="46.67284012" lon="6.79766178"><ele></ele><time>2014-5-13T10:36:15Z</time></trkpt>
<trkpt lat="46.67284012" lon="6.79759741"><ele></ele><time>2014-5-13T10:36:18Z</time></trkpt>
<trkpt lat="46.67320490" lon="6.79733992"><ele></ele><time>2014-5-13T10:36:21Z</time></trkpt>
<trkpt lat="46.67337656" lon="6.79731846"><ele></ele><time>2014-5-13T10:36:24Z</time></trkpt>
<trkpt lat="46.67365551" lon="6.79723263"><ele></ele><time>2014-5-13T10:36:27Z</time></trkpt>
<trkpt lat="46.67374134" lon="6.79721117"><ele></ele><time>2014-5-13T10:36:30Z</time></trkpt>
<trkpt lat="46.67391300" lon="6.79721117"><ele></ele><time>2014-5-13T10:36:33Z</time></trkpt>
<trkpt lat="46.67395592" lon="6.79723263"><ele></ele><time>2014-5-13T10:36:36Z</time></trkpt>
<trkpt lat="46.67408466" lon="6.79759741"><ele></ele><time>2014-5-13T10:36:39Z</time></trkpt>
<trkpt lat="46.67417049" lon="6.79783344"><ele></ele><time>2014-5-13T10:36:42Z</time></trkpt>
<trkpt lat="46.67434216" lon="6.79821968"><ele></ele><time>2014-5-13T10:36:45Z</time></trkpt>
<trkpt lat="46.67468548" lon="6.79849863"><ele></ele><time>2014-5-13T10:36:48Z</time></trkpt>
<trkpt lat="46.67483568" lon="6.79860592"><ele></ele><time>2014-5-13T10:36:51Z</time></trkpt>
<trkpt lat="46.67513609" lon="6.79877758"><ele></ele><time>2014-5-13T10:36:54Z</time></trkpt>
<trkpt lat="46.67530775" lon="6.79882050"><ele></ele><time>2014-5-13T10:36:57Z</time></trkpt>
<trkpt lat="46.67530775" lon="6.79884195"><ele></ele><time>2014-5-13T10:37:0Z</time></trkpt>
<trkpt lat="46.67556524" lon="6.79899216"><ele></ele><time>2014-5-13T10:37:3Z</time></trkpt>
<trkpt lat="46.67569399" lon="6.79903507"><ele></ele><time>2014-5-13T10:37:6Z</time></trkpt>
<trkpt lat="46.67577982" lon="6.79903507"><ele></ele><time>2014-5-13T10:37:9Z</time></trkpt>
<trkpt lat="46.67601585" lon="6.79879904"><ele></ele><time>2014-5-13T10:37:12Z</time></trkpt>
<trkpt lat="46.67595148" lon="6.79862738"><ele></ele><time>2014-5-13T10:37:15Z</time></trkpt>
<trkpt lat="46.67571545" lon="6.79819822"><ele></ele><time>2014-5-13T10:37:18Z</time></trkpt>
<trkpt lat="46.67562962" lon="6.79804802"><ele></ele><time>2014-5-13T10:37:21Z</time></trkpt>
<trkpt lat="46.67558670" lon="6.79759741"><ele></ele><time>2014-5-13T10:37:24Z</time></trkpt>
<trkpt lat="46.67562962" lon="6.79746866"><ele></ele><time>2014-5-13T10:37:27Z</time></trkpt>
<trkpt lat="46.67597294" lon="6.79729700"><ele></ele><time>2014-5-13T10:37:30Z</time></trkpt>
<trkpt lat="46.67623043" lon="6.79712534"><ele></ele><time>2014-5-13T10:37:33Z</time></trkpt>
<trkpt lat="46.67629480" lon="6.79686785"><ele></ele><time>2014-5-13T10:37:36Z</time></trkpt>
<trkpt lat="46.67631626" lon="6.79661036"><ele></ele><time>2014-5-13T10:37:39Z</time></trkpt>
<trkpt lat="46.67635918" lon="6.79633141"><ele></ele><time>2014-5-13T10:37:42Z</time></trkpt>
<trkpt lat="46.67638063" lon="6.79598808"><ele></ele><time>2014-5-13T10:37:45Z</time></trkpt>
<trkpt lat="46.67635918" lon="6.79558039"><ele></ele><time>2014-5-13T10:37:48Z</time></trkpt>
<trkpt lat="46.67633772" lon="6.79521561"><ele></ele><time>2014-5-13T10:37:51Z</time></trkpt>
<trkpt lat="46.67631626" lon="6.79485083"><ele></ele><time>2014-5-13T10:37:54Z</time></trkpt>
<trkpt lat="46.67627335" lon="6.79461479"><ele></ele><time>2014-5-13T10:37:57Z</time></trkpt>
<trkpt lat="46.67608023" lon="6.79399252"><ele></ele><time>2014-5-13T10:38:0Z</time></trkpt>
<trkpt lat="46.67599440" lon="6.79373503"><ele></ele><time>2014-5-13T10:38:3Z</time></trkpt>
<trkpt lat="46.67597294" lon="6.79371357"><ele></ele><time>2014-5-13T10:38:6Z</time></trkpt>
<trkpt lat="46.67590857" lon="6.79354191"><ele></ele><time>2014-5-13T10:38:9Z</time></trkpt>
<trkpt lat="46.67584419" lon="6.79326296"><ele></ele><time>2014-5-13T10:38:12Z</time></trkpt>
<trkpt lat="46.67580128" lon="6.79296255"><ele></ele><time>2014-5-13T10:38:15Z</time></trkpt>
<trkpt lat="46.67569399" lon="6.79249048"><ele></ele><time>2014-5-13T10:38:18Z</time></trkpt>
<trkpt lat="46.67558670" lon="6.79193258"><ele></ele><time>2014-5-13T10:38:21Z</time></trkpt>
<trkpt lat="46.67554379" lon="6.79184675"><ele></ele><time>2014-5-13T10:38:24Z</time></trkpt>
<trkpt lat="46.67554379" lon="6.79182529"><ele></ele><time>2014-5-13T10:38:27Z</time></trkpt>
<trkpt lat="46.67541504" lon="6.79171801"><ele></ele><time>2014-5-13T10:38:30Z</time></trkpt>
<trkpt lat="46.67541504" lon="6.79169655"><ele></ele><time>2014-5-13T10:38:33Z</time></trkpt>
<trkpt lat="46.67515755" lon="6.79148197"><ele></ele><time>2014-5-13T10:38:36Z</time></trkpt>
<trkpt lat="46.67492151" lon="6.79128885"><ele></ele><time>2014-5-13T10:38:39Z</time></trkpt>
<trkpt lat="46.67477131" lon="6.79107428"><ele></ele><time>2014-5-13T10:38:42Z</time></trkpt>
<trkpt lat="46.67466402" lon="6.79092407"><ele></ele><time>2014-5-13T10:38:45Z</time></trkpt>
<trkpt lat="46.67459965" lon="6.79070950"><ele></ele><time>2014-5-13T10:38:48Z</time></trkpt>
<trkpt lat="46.67468548" lon="6.79058075"><ele></ele><time>2014-5-13T10:38:51Z</time></trkpt>
<trkpt lat="46.67494297" lon="6.79070950"><ele></ele><time>2014-5-13T10:38:54Z</time></trkpt>
<trkpt lat="46.67498589" lon="6.79073095"><ele></ele><time>2014-5-13T10:38:57Z</time></trkpt>
<trkpt lat="46.67505026" lon="6.79081678"><ele></ele><time>2014-5-13T10:39:0Z</time></trkpt>
<trkpt lat="46.67530775" lon="6.79094553"><ele></ele><time>2014-5-13T10:39:3Z</time></trkpt>
<trkpt lat="46.67571545" lon="6.79122448"><ele></ele><time>2014-5-13T10:39:6Z</time></trkpt>
<trkpt lat="46.67582273" lon="6.79131031"><ele></ele><time>2014-5-13T10:39:9Z</time></trkpt>
<trkpt lat="46.67588711" lon="6.79128885"><ele></ele><time>2014-5-13T10:39:12Z</time></trkpt>
<trkpt lat="46.67590857" lon="6.79126740"><ele></ele><time>2014-5-13T10:39:15Z</time></trkpt>
<trkpt lat="46.67588711" lon="6.79120302"><ele></ele><time>2014-5-13T10:39:18Z</time></trkpt>
<trkpt lat="46.67569399" lon="6.79090261"><ele></ele><time>2014-5-13T10:39:21Z</time></trkpt>
<trkpt lat="46.67556524" lon="6.79075241"><ele></ele><time>2014-5-13T10:39:24Z</time></trkpt>
<trkpt lat="46.67545795" lon="6.79060221"><ele></ele><time>2014-5-13T10:39:27Z</time></trkpt>
<trkpt lat="46.67541504" lon="6.79058075"><ele></ele><time>2014-5-13T10:39:30Z</time></trkpt>
<trkpt lat="46.67526484" lon="6.79032326"><ele></ele><time>2014-5-13T10:39:33Z</time></trkpt>
<trkpt lat="46.67511463" lon="6.79006577"><ele></ele><time>2014-5-13T10:39:36Z</time></trkpt>
<trkpt lat="46.67500734" lon="6.78976536"><ele></ele><time>2014-5-13T10:39:39Z</time></trkpt>
<trkpt lat="46.67492151" lon="6.78944349"><ele></ele><time>2014-5-13T10:39:42Z</time></trkpt>
<trkpt lat="46.67494297" lon="6.78925037"><ele></ele><time>2014-5-13T10:39:45Z</time></trkpt>
<trkpt lat="46.67494297" lon="6.78914309"><ele></ele><time>2014-5-13T10:39:48Z</time></trkpt>
<trkpt lat="46.67492151" lon="6.78910017"><ele></ele><time>2014-5-13T10:39:51Z</time></trkpt>
<trkpt lat="46.67492151" lon="6.78905725"><ele></ele><time>2014-5-13T10:39:54Z</time></trkpt>
<trkpt lat="46.67494297" lon="6.78899288"><ele></ele><time>2014-5-13T10:39:57Z</time></trkpt>
<trkpt lat="46.67494297" lon="6.78892851"><ele></ele><time>2014-5-13T10:40:0Z</time></trkpt>
<trkpt lat="46.67496443" lon="6.78869247"><ele></ele><time>2014-5-13T10:40:3Z</time></trkpt>
<trkpt lat="46.67490005" lon="6.78832769"><ele></ele><time>2014-5-13T10:40:6Z</time></trkpt>
<trkpt lat="46.67492151" lon="6.78832769"><ele></ele><time>2014-5-13T10:40:9Z</time></trkpt>
<trkpt lat="46.67494297" lon="6.78796291"><ele></ele><time>2014-5-13T10:40:12Z</time></trkpt>
<trkpt lat="46.67494297" lon="6.78770542"><ele></ele><time>2014-5-13T10:40:15Z</time></trkpt>
<trkpt lat="46.67494297" lon="6.78768396"><ele></ele><time>2014-5-13T10:40:18Z</time></trkpt>
<trkpt lat="46.67494297" lon="6.78755522"><ele></ele><time>2014-5-13T10:40:21Z</time></trkpt>
<trkpt lat="46.67485714" lon="6.78719044"><ele></ele><time>2014-5-13T10:40:24Z</time></trkpt>
<trkpt lat="46.67477131" lon="6.78693295"><ele></ele><time>2014-5-13T10:40:27Z</time></trkpt>
<trkpt lat="46.67474985" lon="6.78689003"><ele></ele><time>2014-5-13T10:40:30Z</time></trkpt>
<trkpt lat="46.67466402" lon="6.78665400"><ele></ele><time>2014-5-13T10:40:33Z</time></trkpt>
<trkpt lat="46.67455673" lon="6.78643942"><ele></ele><time>2014-5-13T10:40:36Z</time></trkpt>
<trkpt lat="46.67449236" lon="6.78631067"><ele></ele><time>2014-5-13T10:40:39Z</time></trkpt>
<trkpt lat="46.67447090" lon="6.78624630"><ele></ele><time>2014-5-13T10:40:42Z</time></trkpt>
<trkpt lat="46.67427778" lon="6.78596735"><ele></ele><time>2014-5-13T10:40:45Z</time></trkpt>
<trkpt lat="46.67410612" lon="6.78568840"><ele></ele><time>2014-5-13T10:40:48Z</time></trkpt>
<trkpt lat="46.67389154" lon="6.78519487"><ele></ele><time>2014-5-13T10:40:51Z</time></trkpt>
<trkpt lat="46.67371988" lon="6.78457260"><ele></ele><time>2014-5-13T10:40:54Z</time></trkpt>
<trkpt lat="46.67359114" lon="6.78414345"><ele></ele><time>2014-5-13T10:40:57Z</time></trkpt>
<trkpt lat="46.67350531" lon="6.78386450"><ele></ele><time>2014-5-13T10:41:0Z</time></trkpt>
<trkpt lat="46.67341948" lon="6.78358555"><ele></ele><time>2014-5-13T10:41:3Z</time></trkpt>
<trkpt lat="46.67329073" lon="6.78317785"><ele></ele><time>2014-5-13T10:41:6Z</time></trkpt>
<trkpt lat="46.67324781" lon="6.78270578"><ele></ele><time>2014-5-13T10:41:9Z</time></trkpt>
<trkpt lat="46.67335510" lon="6.78240538"><ele></ele><time>2014-5-13T10:41:12Z</time></trkpt>
<trkpt lat="46.67344093" lon="6.78206205"><ele></ele><time>2014-5-13T10:41:15Z</time></trkpt>
<trkpt lat="46.67354822" lon="6.78176165"><ele></ele><time>2014-5-13T10:41:18Z</time></trkpt>
<trkpt lat="46.67359114" lon="6.78165436"><ele></ele><time>2014-5-13T10:41:21Z</time></trkpt>
<trkpt lat="46.67374134" lon="6.78137541"><ele></ele><time>2014-5-13T10:41:24Z</time></trkpt>
<trkpt lat="46.67374134" lon="6.78135395"><ele></ele><time>2014-5-13T10:41:27Z</time></trkpt>
<trkpt lat="46.67387009" lon="6.78107500"><ele></ele><time>2014-5-13T10:41:30Z</time></trkpt>
<trkpt lat="46.67395592" lon="6.78077459"><ele></ele><time>2014-5-13T10:41:33Z</time></trkpt>
<trkpt lat="46.67402029" lon="6.78053856"><ele></ele><time>2014-5-13T10:41:36Z</time></trkpt>
<trkpt lat="46.67406321" lon="6.78015232"><ele></ele><time>2014-5-13T10:41:39Z</time></trkpt>
<trkpt lat="46.67408466" lon="6.78008795"><ele></ele><time>2014-5-13T10:41:42Z</time></trkpt>
<trkpt lat="46.67419195" lon="6.77993774"><ele></ele><time>2014-5-13T10:41:45Z</time></trkpt>
<trkpt lat="46.67440653" lon="6.77972317"><ele></ele><time>2014-5-13T10:41:48Z</time></trkpt>
<trkpt lat="46.67455673" lon="6.77946568"><ele></ele><time>2014-5-13T10:41:51Z</time></trkpt>
<trkpt lat="46.67464256" lon="6.77918673"><ele></ele><time>2014-5-13T10:41:54Z</time></trkpt>
<trkpt lat="46.67472839" lon="6.77886486"><ele></ele><time>2014-5-13T10:41:57Z</time></trkpt>
<trkpt lat="46.67479277" lon="6.77862883"><ele></ele><time>2014-5-13T10:42:0Z</time></trkpt>
<trkpt lat="46.67492151" lon="6.77826405"><ele></ele><time>2014-5-13T10:42:3Z</time></trkpt>
<trkpt lat="46.67502880" lon="6.77789927"><ele></ele><time>2014-5-13T10:42:6Z</time></trkpt>
<trkpt lat="46.67515755" lon="6.77762032"><ele></ele><time>2014-5-13T10:42:9Z</time></trkpt>
<trkpt lat="46.67528629" lon="6.77749157"><ele></ele><time>2014-5-13T10:42:12Z</time></trkpt>
<trkpt lat="46.67532921" lon="6.77749157"><ele></ele><time>2014-5-13T10:42:15Z</time></trkpt>
<trkpt lat="46.67532921" lon="6.77751303"><ele></ele><time>2014-5-13T10:42:18Z</time></trkpt>
<trkpt lat="46.67532921" lon="6.77747011"><ele></ele><time>2014-5-13T10:42:21Z</time></trkpt>
<trkpt lat="46.67535067" lon="6.77749157"><ele></ele><time>2014-5-13T10:42:24Z</time></trkpt>
<trkpt lat="46.67539358" lon="6.77749157"><ele></ele><time>2014-5-13T10:42:27Z</time></trkpt>
<trkpt lat="46.67556524" lon="6.77774906"><ele></ele><time>2014-5-13T10:42:30Z</time></trkpt>
<trkpt lat="46.67577982" lon="6.77802801"><ele></ele><time>2014-5-13T10:42:33Z</time></trkpt>
<trkpt lat="46.67601585" lon="6.77841425"><ele></ele><time>2014-5-13T10:42:36Z</time></trkpt>
<trkpt lat="46.67644501" lon="6.77910089"><ele></ele><time>2014-5-13T10:42:39Z</time></trkpt>
<trkpt lat="46.67653084" lon="6.77931547"><ele></ele><time>2014-5-13T10:42:42Z</time></trkpt>
<trkpt lat="46.67668104" lon="6.77970171"><ele></ele><time>2014-5-13T10:42:45Z</time></trkpt>
<trkpt lat="46.67680979" lon="6.78002357"><ele></ele><time>2014-5-13T10:42:48Z</time></trkpt>
<trkpt lat="46.67683125" lon="6.78008795"><ele></ele><time>2014-5-13T10:42:51Z</time></trkpt>
<trkpt lat="46.67685270" lon="6.78015232"><ele></ele><time>2014-5-13T10:42:54Z</time></trkpt>
<trkpt lat="46.67691708" lon="6.78021669"><ele></ele><time>2014-5-13T10:42:57Z</time></trkpt>
<trkpt lat="46.67719603" lon="6.78015232"><ele></ele><time>2014-5-13T10:43:0Z</time></trkpt>
<trkpt lat="46.67820454" lon="6.78053856"><ele></ele><time>2014-5-13T10:43:3Z</time></trkpt>
<trkpt lat="46.67809725" lon="6.78109646"><ele></ele><time>2014-5-13T10:43:6Z</time></trkpt>
<trkpt lat="46.67805433" lon="6.78120375"><ele></ele><time>2014-5-13T10:43:9Z</time></trkpt>
<trkpt lat="46.67794704" lon="6.78167582"><ele></ele><time>2014-5-13T10:43:12Z</time></trkpt>
<trkpt lat="46.67792559" lon="6.78180456"><ele></ele><time>2014-5-13T10:43:15Z</time></trkpt>
<trkpt lat="46.67760372" lon="6.78238392"><ele></ele><time>2014-5-13T10:43:18Z</time></trkpt>
<trkpt lat="46.67749643" lon="6.78249121"><ele></ele><time>2014-5-13T10:43:21Z</time></trkpt>
<trkpt lat="46.67745352" lon="6.78268433"><ele></ele><time>2014-5-13T10:43:24Z</time></trkpt>
<trkpt lat="46.67756081" lon="6.78315639"><ele></ele><time>2014-5-13T10:43:27Z</time></trkpt>
<trkpt lat="46.67758226" lon="6.78330660"><ele></ele><time>2014-5-13T10:43:30Z</time></trkpt>
<trkpt lat="46.67794704" lon="6.78356409"><ele></ele><time>2014-5-13T10:43:33Z</time></trkpt>
<trkpt lat="46.67801142" lon="6.78358555"><ele></ele><time>2014-5-13T10:43:36Z</time></trkpt>
<trkpt lat="46.67833328" lon="6.78397179"><ele></ele><time>2014-5-13T10:43:39Z</time></trkpt>
<trkpt lat="46.67874098" lon="6.78452969"><ele></ele><time>2014-5-13T10:43:42Z</time></trkpt>
<trkpt lat="46.67899847" lon="6.78485155"><ele></ele><time>2014-5-13T10:43:45Z</time></trkpt>
<trkpt lat="46.67923450" lon="6.78532362"><ele></ele><time>2014-5-13T10:43:48Z</time></trkpt>
<trkpt lat="46.67959929" lon="6.78607464"><ele></ele><time>2014-5-13T10:43:51Z</time></trkpt>
<trkpt lat="46.67962074" lon="6.78613901"><ele></ele><time>2014-5-13T10:43:54Z</time></trkpt>
<trkpt lat="46.67981386" lon="6.78641796"><ele></ele><time>2014-5-13T10:43:57Z</time></trkpt>
<trkpt lat="46.67994261" lon="6.78669691"><ele></ele><time>2014-5-13T10:44:0Z</time></trkpt>
<trkpt lat="46.68000698" lon="6.78684711"><ele></ele><time>2014-5-13T10:44:3Z</time></trkpt>
<trkpt lat="46.68030739" lon="6.78731918"><ele></ele><time>2014-5-13T10:44:6Z</time></trkpt>
<trkpt lat="46.68052197" lon="6.78759813"><ele></ele><time>2014-5-13T10:44:9Z</time></trkpt>
<trkpt lat="46.68065071" lon="6.78776979"><ele></ele><time>2014-5-13T10:44:12Z</time></trkpt>
<trkpt lat="46.68073654" lon="6.78789854"><ele></ele><time>2014-5-13T10:44:15Z</time></trkpt>
<trkpt lat="46.68082237" lon="6.78809166"><ele></ele><time>2014-5-13T10:44:18Z</time></trkpt>
<trkpt lat="46.68084383" lon="6.78813457"><ele></ele><time>2014-5-13T10:44:21Z</time></trkpt>
<trkpt lat="46.68095112" lon="6.78843498"><ele></ele><time>2014-5-13T10:44:24Z</time></trkpt>
<trkpt lat="46.68107986" lon="6.78871393"><ele></ele><time>2014-5-13T10:44:27Z</time></trkpt>
<trkpt lat="46.68127298" lon="6.78901434"><ele></ele><time>2014-5-13T10:44:30Z</time></trkpt>
<trkpt lat="46.68129444" lon="6.78903580"><ele></ele><time>2014-5-13T10:44:33Z</time></trkpt>
<trkpt lat="46.68146610" lon="6.78920746"><ele></ele><time>2014-5-13T10:44:36Z</time></trkpt>
<trkpt lat="46.68157339" lon="6.78929329"><ele></ele><time>2014-5-13T10:44:39Z</time></trkpt>
<trkpt lat="46.68163776" lon="6.78922892"><ele></ele><time>2014-5-13T10:44:42Z</time></trkpt>
<trkpt lat="46.68198109" lon="6.78912163"><ele></ele><time>2014-5-13T10:44:45Z</time></trkpt>
<trkpt lat="46.68204546" lon="6.78907871"><ele></ele><time>2014-5-13T10:44:48Z</time></trkpt>
<trkpt lat="46.68195963" lon="6.78873539"><ele></ele><time>2014-5-13T10:44:51Z</time></trkpt>
<trkpt lat="46.68189526" lon="6.78845644"><ele></ele><time>2014-5-13T10:44:54Z</time></trkpt>
<trkpt lat="46.68185234" lon="6.78800583"><ele></ele><time>2014-5-13T10:44:57Z</time></trkpt>
<trkpt lat="46.68185234" lon="6.78796291"><ele></ele><time>2014-5-13T10:45:0Z</time></trkpt>
<trkpt lat="46.68217421" lon="6.78768396"><ele></ele><time>2014-5-13T10:45:3Z</time></trkpt>
<trkpt lat="46.68174505" lon="6.78719044"><ele></ele><time>2014-5-13T10:45:6Z</time></trkpt>
<trkpt lat="46.68159485" lon="6.78669691"><ele></ele><time>2014-5-13T10:45:9Z</time></trkpt>
<trkpt lat="46.68133736" lon="6.78628922"><ele></ele><time>2014-5-13T10:45:12Z</time></trkpt>
<trkpt lat="46.68123007" lon="6.78598881"><ele></ele><time>2014-5-13T10:45:15Z</time></trkpt>
<trkpt lat="46.68123007" lon="6.78586006"><ele></ele><time>2014-5-13T10:45:18Z</time></trkpt>
<trkpt lat="46.68123007" lon="6.78570986"><ele></ele><time>2014-5-13T10:45:21Z</time></trkpt>
<trkpt lat="46.68125153" lon="6.78562403"><ele></ele><time>2014-5-13T10:45:24Z</time></trkpt>
<trkpt lat="46.68125153" lon="6.78536654"><ele></ele><time>2014-5-13T10:45:27Z</time></trkpt>
<trkpt lat="46.68127298" lon="6.78508759"><ele></ele><time>2014-5-13T10:45:30Z</time></trkpt>
<trkpt lat="46.68127298" lon="6.78498030"><ele></ele><time>2014-5-13T10:45:33Z</time></trkpt>
<trkpt lat="46.68125153" lon="6.78491592"><ele></ele><time>2014-5-13T10:45:36Z</time></trkpt>
<trkpt lat="46.68127298" lon="6.78455114"><ele></ele><time>2014-5-13T10:45:39Z</time></trkpt>
<trkpt lat="46.68127298" lon="6.78450823"><ele></ele><time>2014-5-13T10:45:42Z</time></trkpt>
<trkpt lat="46.68127298" lon="6.78418636"><ele></ele><time>2014-5-13T10:45:45Z</time></trkpt>
<trkpt lat="46.68127298" lon="6.78416491"><ele></ele><time>2014-5-13T10:45:48Z</time></trkpt>
<trkpt lat="46.68125153" lon="6.78403616"><ele></ele><time>2014-5-13T10:45:51Z</time></trkpt>
<trkpt lat="46.68125153" lon="6.78403616"><ele></ele><time>2014-5-13T10:45:54Z</time></trkpt>
<trkpt lat="46.68120861" lon="6.78392887"><ele></ele><time>2014-5-13T10:45:57Z</time></trkpt>
<trkpt lat="46.68116570" lon="6.78384304"><ele></ele><time>2014-5-13T10:46:0Z</time></trkpt>
<trkpt lat="46.68112278" lon="6.78360701"><ele></ele><time>2014-5-13T10:46:3Z</time></trkpt>
<trkpt lat="46.68095112" lon="6.78304911"><ele></ele><time>2014-5-13T10:46:6Z</time></trkpt>
<trkpt lat="46.68084383" lon="6.78281307"><ele></ele><time>2014-5-13T10:46:9Z</time></trkpt>
<trkpt lat="46.68073654" lon="6.78257704"><ele></ele><time>2014-5-13T10:46:12Z</time></trkpt>
<trkpt lat="46.68073654" lon="6.78204060"><ele></ele><time>2014-5-13T10:46:15Z</time></trkpt>
<trkpt lat="46.68090820" lon="6.78107500"><ele></ele><time>2014-5-13T10:46:18Z</time></trkpt>
<trkpt lat="46.68056488" lon="6.78137541"><ele></ele><time>2014-5-13T10:46:21Z</time></trkpt>
<trkpt lat="46.68050051" lon="6.78113937"><ele></ele><time>2014-5-13T10:46:24Z</time></trkpt>
<trkpt lat="46.68043613" lon="6.78103209"><ele></ele><time>2014-5-13T10:46:27Z</time></trkpt>
<trkpt lat="46.68013573" lon="6.78088188"><ele></ele><time>2014-5-13T10:46:30Z</time></trkpt>
<trkpt lat="46.67985678" lon="6.78083897"><ele></ele><time>2014-5-13T10:46:33Z</time></trkpt>
<trkpt lat="46.67951345" lon="6.78075314"><ele></ele><time>2014-5-13T10:46:36Z</time></trkpt>
<trkpt lat="46.67940617" lon="6.78066730"><ele></ele><time>2014-5-13T10:46:39Z</time></trkpt>
<trkpt lat="46.67955637" lon="6.78040981"><ele></ele><time>2014-5-13T10:46:42Z</time></trkpt>
<trkpt lat="46.67957783" lon="6.78032398"><ele></ele><time>2014-5-13T10:46:45Z</time></trkpt>
<trkpt lat="46.67940617" lon="6.77995920"><ele></ele><time>2014-5-13T10:46:48Z</time></trkpt>
<trkpt lat="46.67917013" lon="6.77950859"><ele></ele><time>2014-5-13T10:46:51Z</time></trkpt>
<trkpt lat="46.67901993" lon="6.77912235"><ele></ele><time>2014-5-13T10:46:54Z</time></trkpt>
<trkpt lat="46.67895555" lon="6.77899361"><ele></ele><time>2014-5-13T10:46:57Z</time></trkpt>
<trkpt lat="46.67865515" lon="6.77888632"><ele></ele><time>2014-5-13T10:47:0Z</time></trkpt>
<trkpt lat="46.67856932" lon="6.77845716"><ele></ele><time>2014-5-13T10:47:3Z</time></trkpt>
<trkpt lat="46.67848349" lon="6.77824259"><ele></ele><time>2014-5-13T10:47:6Z</time></trkpt>
<trkpt lat="46.67801142" lon="6.77781343"><ele></ele><time>2014-5-13T10:47:9Z</time></trkpt>
<trkpt lat="46.67730331" lon="6.77753448"><ele></ele><time>2014-5-13T10:47:12Z</time></trkpt>
<trkpt lat="46.67702436" lon="6.77749157"><ele></ele><time>2014-5-13T10:47:15Z</time></trkpt>
<trkpt lat="46.67661667" lon="6.77740574"><ele></ele><time>2014-5-13T10:47:18Z</time></trkpt>
<trkpt lat="46.67627335" lon="6.77738428"><ele></ele><time>2014-5-13T10:47:21Z</time></trkpt>
<trkpt lat="46.67623043" lon="6.77736282"><ele></ele><time>2014-5-13T10:47:24Z</time></trkpt>
<trkpt lat="46.67612314" lon="6.77738428"><ele></ele><time>2014-5-13T10:47:27Z</time></trkpt>
<trkpt lat="46.67562962" lon="6.77740574"><ele></ele><time>2014-5-13T10:47:30Z</time></trkpt>
<trkpt lat="46.67535067" lon="6.77766323"><ele></ele><time>2014-5-13T10:47:33Z</time></trkpt>
<trkpt lat="46.67537212" lon="6.77766323"><ele></ele><time>2014-5-13T10:47:36Z</time></trkpt>
<trkpt lat="46.67543650" lon="6.77762032"><ele></ele><time>2014-5-13T10:47:39Z</time></trkpt>
<trkpt lat="46.67560816" lon="6.77785635"><ele></ele><time>2014-5-13T10:47:42Z</time></trkpt>
<trkpt lat="46.67599440" lon="6.77843571"><ele></ele><time>2014-5-13T10:47:45Z</time></trkpt>
<trkpt lat="46.67635918" lon="6.77903652"><ele></ele><time>2014-5-13T10:47:48Z</time></trkpt>
<trkpt lat="46.67665958" lon="6.77953005"><ele></ele><time>2014-5-13T10:47:51Z</time></trkpt>
<trkpt lat="46.67691708" lon="6.77993774"><ele></ele><time>2014-5-13T10:47:54Z</time></trkpt>
<trkpt lat="46.67741060" lon="6.77995920"><ele></ele><time>2014-5-13T10:47:57Z</time></trkpt>
<trkpt lat="46.67762518" lon="6.77993774"><ele></ele><time>2014-5-13T10:48:0Z</time></trkpt>
<trkpt lat="46.67777538" lon="6.77991629"><ele></ele><time>2014-5-13T10:48:3Z</time></trkpt>
<trkpt lat="46.67796850" lon="6.78002357"><ele></ele><time>2014-5-13T10:48:6Z</time></trkpt>
<trkpt lat="46.67803288" lon="6.78017378"><ele></ele><time>2014-5-13T10:48:9Z</time></trkpt>
<trkpt lat="46.67805433" lon="6.78043127"><ele></ele><time>2014-5-13T10:48:12Z</time></trkpt>
<trkpt lat="46.67794704" lon="6.78107500"><ele></ele><time>2014-5-13T10:48:15Z</time></trkpt>
<trkpt lat="46.67783976" lon="6.78141832"><ele></ele><time>2014-5-13T10:48:18Z</time></trkpt>
<trkpt lat="46.67734623" lon="6.78231955"><ele></ele><time>2014-5-13T10:48:21Z</time></trkpt>
<trkpt lat="46.67726040" lon="6.78249121"><ele></ele><time>2014-5-13T10:48:24Z</time></trkpt>
<trkpt lat="46.67723894" lon="6.78259850"><ele></ele><time>2014-5-13T10:48:27Z</time></trkpt>
<trkpt lat="46.67732477" lon="6.78283453"><ele></ele><time>2014-5-13T10:48:30Z</time></trkpt>
<trkpt lat="46.67751789" lon="6.78347826"><ele></ele><time>2014-5-13T10:48:33Z</time></trkpt>
<trkpt lat="46.67758226" lon="6.78367138"><ele></ele><time>2014-5-13T10:48:36Z</time></trkpt>
<trkpt lat="46.67766809" lon="6.78388596"><ele></ele><time>2014-5-13T10:48:39Z</time></trkpt>
<trkpt lat="46.67768955" lon="6.78392887"><ele></ele><time>2014-5-13T10:48:42Z</time></trkpt>
<trkpt lat="46.67771101" lon="6.78405762"><ele></ele><time>2014-5-13T10:48:45Z</time></trkpt>
<trkpt lat="46.67781830" lon="6.78476572"><ele></ele><time>2014-5-13T10:48:48Z</time></trkpt>
<trkpt lat="46.67786121" lon="6.78502321"><ele></ele><time>2014-5-13T10:48:51Z</time></trkpt>
<trkpt lat="46.67788267" lon="6.78530216"><ele></ele><time>2014-5-13T10:48:54Z</time></trkpt>
<trkpt lat="46.67790413" lon="6.78536654"><ele></ele><time>2014-5-13T10:48:57Z</time></trkpt>
<trkpt lat="46.67792559" lon="6.78560257"><ele></ele><time>2014-5-13T10:49:0Z</time></trkpt>
<trkpt lat="46.67798996" lon="6.78590298"><ele></ele><time>2014-5-13T10:49:3Z</time></trkpt>
<trkpt lat="46.67811871" lon="6.78624630"><ele></ele><time>2014-5-13T10:49:6Z</time></trkpt>
<trkpt lat="46.67820454" lon="6.78631067"><ele></ele><time>2014-5-13T10:49:9Z</time></trkpt>
<trkpt lat="46.67824745" lon="6.78633213"><ele></ele><time>2014-5-13T10:49:12Z</time></trkpt>
<trkpt lat="46.67826891" lon="6.78639650"><ele></ele><time>2014-5-13T10:49:15Z</time></trkpt>
<trkpt lat="46.67841911" lon="6.78663254"><ele></ele><time>2014-5-13T10:49:18Z</time></trkpt>
<trkpt lat="46.67848349" lon="6.78673983"><ele></ele><time>2014-5-13T10:49:21Z</time></trkpt>
<trkpt lat="46.67867661" lon="6.78706169"><ele></ele><time>2014-5-13T10:49:24Z</time></trkpt>
<trkpt lat="46.67874098" lon="6.78721189"><ele></ele><time>2014-5-13T10:49:27Z</time></trkpt>
<trkpt lat="46.67897701" lon="6.78757668"><ele></ele><time>2014-5-13T10:49:30Z</time></trkpt>
<trkpt lat="46.67901993" lon="6.78761959"><ele></ele><time>2014-5-13T10:49:33Z</time></trkpt>
<trkpt lat="46.67912722" lon="6.78783417"><ele></ele><time>2014-5-13T10:49:36Z</time></trkpt>
<trkpt lat="46.67912722" lon="6.78785563"><ele></ele><time>2014-5-13T10:49:39Z</time></trkpt>
<trkpt lat="46.67921305" lon="6.78804874"><ele></ele><time>2014-5-13T10:49:42Z</time></trkpt>
<trkpt lat="46.67932034" lon="6.78828478"><ele></ele><time>2014-5-13T10:49:45Z</time></trkpt>
<trkpt lat="46.67940617" lon="6.78839207"><ele></ele><time>2014-5-13T10:49:48Z</time></trkpt>
<trkpt lat="46.67940617" lon="6.78841352"><ele></ele><time>2014-5-13T10:49:51Z</time></trkpt>
<trkpt lat="46.67934179" lon="6.78841352"><ele></ele><time>2014-5-13T10:49:54Z</time></trkpt>
<trkpt lat="46.67899847" lon="6.78826332"><ele></ele><time>2014-5-13T10:49:57Z</time></trkpt>
<trkpt lat="46.67882681" lon="6.78819895"><ele></ele><time>2014-5-13T10:50:0Z</time></trkpt>
<trkpt lat="46.67863369" lon="6.78813457"><ele></ele><time>2014-5-13T10:50:3Z</time></trkpt>
<trkpt lat="46.67831182" lon="6.78811312"><ele></ele><time>2014-5-13T10:50:6Z</time></trkpt>
<trkpt lat="46.67811871" lon="6.78811312"><ele></ele><time>2014-5-13T10:50:9Z</time></trkpt>
<trkpt lat="46.67792559" lon="6.78813457"><ele></ele><time>2014-5-13T10:50:12Z</time></trkpt>
<trkpt lat="46.67794704" lon="6.78837061"><ele></ele><time>2014-5-13T10:50:15Z</time></trkpt>
<trkpt lat="46.67814016" lon="6.78875685"><ele></ele><time>2014-5-13T10:50:18Z</time></trkpt>
<trkpt lat="46.67822599" lon="6.78892851"><ele></ele><time>2014-5-13T10:50:21Z</time></trkpt>
<trkpt lat="46.67831182" lon="6.78916454"><ele></ele><time>2014-5-13T10:50:24Z</time></trkpt>
<trkpt lat="46.67829037" lon="6.78978682"><ele></ele><time>2014-5-13T10:50:27Z</time></trkpt>
<trkpt lat="46.67818308" lon="6.78985119"><ele></ele><time>2014-5-13T10:50:30Z</time></trkpt>
<trkpt lat="46.67809725" lon="6.78987265"><ele></ele><time>2014-5-13T10:50:33Z</time></trkpt>
<trkpt lat="46.67807579" lon="6.78985119"><ele></ele><time>2014-5-13T10:50:36Z</time></trkpt>
<trkpt lat="46.67796850" lon="6.78989410"><ele></ele><time>2014-5-13T10:50:39Z</time></trkpt>
<trkpt lat="46.67760372" lon="6.79019451"><ele></ele><time>2014-5-13T10:50:42Z</time></trkpt>
<trkpt lat="46.67711020" lon="6.79066658"><ele></ele><time>2014-5-13T10:50:45Z</time></trkpt>
<trkpt lat="46.67668104" lon="6.79113865"><ele></ele><time>2014-5-13T10:50:48Z</time></trkpt>
<trkpt lat="46.67644501" lon="6.79146051"><ele></ele><time>2014-5-13T10:50:51Z</time></trkpt>
<trkpt lat="46.67646646" lon="6.79171801"><ele></ele><time>2014-5-13T10:50:54Z</time></trkpt>
<trkpt lat="46.67646646" lon="6.79173946"><ele></ele><time>2014-5-13T10:50:57Z</time></trkpt>
<trkpt lat="46.67650938" lon="6.79216862"><ele></ele><time>2014-5-13T10:51:0Z</time></trkpt>
<trkpt lat="46.67640209" lon="6.79197550"><ele></ele><time>2014-5-13T10:51:3Z</time></trkpt>
<trkpt lat="46.67618752" lon="6.79173946"><ele></ele><time>2014-5-13T10:51:6Z</time></trkpt>
<trkpt lat="46.67620897" lon="6.79178238"><ele></ele><time>2014-5-13T10:51:9Z</time></trkpt>
<trkpt lat="46.67623043" lon="6.79184675"><ele></ele><time>2014-5-13T10:51:12Z</time></trkpt>
<trkpt lat="46.67631626" lon="6.79199696"><ele></ele><time>2014-5-13T10:51:15Z</time></trkpt>
<trkpt lat="46.67633772" lon="6.79214716"><ele></ele><time>2014-5-13T10:51:18Z</time></trkpt>
<trkpt lat="46.67633772" lon="6.79223299"><ele></ele><time>2014-5-13T10:51:21Z</time></trkpt>
<trkpt lat="46.67631626" lon="6.79240465"><ele></ele><time>2014-5-13T10:51:24Z</time></trkpt>
<trkpt lat="46.67629480" lon="6.79261923"><ele></ele><time>2014-5-13T10:51:27Z</time></trkpt>
<trkpt lat="46.67620897" lon="6.79291964"><ele></ele><time>2014-5-13T10:51:30Z</time></trkpt>
<trkpt lat="46.67618752" lon="6.79300547"><ele></ele><time>2014-5-13T10:51:33Z</time></trkpt>
<trkpt lat="46.67612314" lon="6.79324150"><ele></ele><time>2014-5-13T10:51:36Z</time></trkpt>
<trkpt lat="46.67610168" lon="6.79337025"><ele></ele><time>2014-5-13T10:51:39Z</time></trkpt>
<trkpt lat="46.67601585" lon="6.79362774"><ele></ele><time>2014-5-13T10:51:42Z</time></trkpt>
<trkpt lat="46.67597294" lon="6.79367065"><ele></ele><time>2014-5-13T10:51:45Z</time></trkpt>
<trkpt lat="46.67597294" lon="6.79369211"><ele></ele><time>2014-5-13T10:51:48Z</time></trkpt>
<trkpt lat="46.67599440" lon="6.79382086"><ele></ele><time>2014-5-13T10:51:51Z</time></trkpt>
<trkpt lat="46.67618752" lon="6.79431438"><ele></ele><time>2014-5-13T10:51:54Z</time></trkpt>
<trkpt lat="46.67620897" lon="6.79440022"><ele></ele><time>2014-5-13T10:51:57Z</time></trkpt>
<trkpt lat="46.67623043" lon="6.79493666"><ele></ele><time>2014-5-13T10:52:0Z</time></trkpt>
<trkpt lat="46.67620897" lon="6.79549456"><ele></ele><time>2014-5-13T10:52:3Z</time></trkpt>
<trkpt lat="46.67620897" lon="6.79609537"><ele></ele><time>2014-5-13T10:52:6Z</time></trkpt>
<trkpt lat="46.67620897" lon="6.79641724"><ele></ele><time>2014-5-13T10:52:9Z</time></trkpt>
<trkpt lat="46.67620897" lon="6.79652452"><ele></ele><time>2014-5-13T10:52:12Z</time></trkpt>
<trkpt lat="46.67620897" lon="6.79680347"><ele></ele><time>2014-5-13T10:52:15Z</time></trkpt>
<trkpt lat="46.67620897" lon="6.79688931"><ele></ele><time>2014-5-13T10:52:18Z</time></trkpt>
<trkpt lat="46.67616606" lon="6.79761887"><ele></ele><time>2014-5-13T10:52:21Z</time></trkpt>
<trkpt lat="46.67597294" lon="6.79770470"><ele></ele><time>2014-5-13T10:52:24Z</time></trkpt>
<trkpt lat="46.67590857" lon="6.79770470"><ele></ele><time>2014-5-13T10:52:27Z</time></trkpt>
<trkpt lat="46.67577982" lon="6.79772615"><ele></ele><time>2014-5-13T10:52:30Z</time></trkpt>
<trkpt lat="46.67541504" lon="6.79770470"><ele></ele><time>2014-5-13T10:52:33Z</time></trkpt>
<trkpt lat="46.67539358" lon="6.79768324"><ele></ele><time>2014-5-13T10:52:36Z</time></trkpt>
<trkpt lat="46.67532921" lon="6.79768324"><ele></ele><time>2014-5-13T10:52:39Z</time></trkpt>
<trkpt lat="46.67524338" lon="6.79766178"><ele></ele><time>2014-5-13T10:52:42Z</time></trkpt>
<trkpt lat="46.67509317" lon="6.79766178"><ele></ele><time>2014-5-13T10:52:45Z</time></trkpt>
<trkpt lat="46.67485714" lon="6.79781199"><ele></ele><time>2014-5-13T10:52:48Z</time></trkpt>
<trkpt lat="46.67481422" lon="6.79781199"><ele></ele><time>2014-5-13T10:52:51Z</time></trkpt>
<trkpt lat="46.67472839" lon="6.79776907"><ele></ele><time>2014-5-13T10:52:54Z</time></trkpt>
<trkpt lat="46.67459965" lon="6.79770470"><ele></ele><time>2014-5-13T10:52:57Z</time></trkpt>
<trkpt lat="46.67451382" lon="6.79766178"><ele></ele><time>2014-5-13T10:53:0Z</time></trkpt>
<trkpt lat="46.67432070" lon="6.79751158"><ele></ele><time>2014-5-13T10:53:3Z</time></trkpt>
<trkpt lat="46.67425632" lon="6.79746866"><ele></ele><time>2014-5-13T10:53:6Z</time></trkpt>
<trkpt lat="46.67417049" lon="6.79742575"><ele></ele><time>2014-5-13T10:53:9Z</time></trkpt>
<trkpt lat="46.67404175" lon="6.79736137"><ele></ele><time>2014-5-13T10:53:12Z</time></trkpt>
<trkpt lat="46.67397738" lon="6.79749012"><ele></ele><time>2014-5-13T10:53:15Z</time></trkpt>
<trkpt lat="46.67397738" lon="6.79772615"><ele></ele><time>2014-5-13T10:53:18Z</time></trkpt>
<trkpt lat="46.67399883" lon="6.79781199"><ele></ele><time>2014-5-13T10:53:21Z</time></trkpt>
<trkpt lat="46.67414904" lon="6.79830551"><ele></ele><time>2014-5-13T10:53:24Z</time></trkpt>
<trkpt lat="46.67417049" lon="6.79834843"><ele></ele><time>2014-5-13T10:53:27Z</time></trkpt>
<trkpt lat="46.67404175" lon="6.79879904"><ele></ele><time>2014-5-13T10:53:30Z</time></trkpt>
<trkpt lat="46.67399883" lon="6.79886341"><ele></ele><time>2014-5-13T10:53:33Z</time></trkpt>
<trkpt lat="46.67395592" lon="6.79892778"><ele></ele><time>2014-5-13T10:53:36Z</time></trkpt>
<trkpt lat="46.67425632" lon="6.79924965"><ele></ele><time>2014-5-13T10:53:39Z</time></trkpt>
<trkpt lat="46.67455673" lon="6.79957151"><ele></ele><time>2014-5-13T10:53:42Z</time></trkpt>
<trkpt lat="46.67453527" lon="6.79961443"><ele></ele><time>2014-5-13T10:53:45Z</time></trkpt>
<trkpt lat="46.67453527" lon="6.79963589"><ele></ele><time>2014-5-13T10:53:48Z</time></trkpt>
<trkpt lat="46.67451382" lon="6.79963589"><ele></ele><time>2014-5-13T10:53:51Z</time></trkpt>
<trkpt lat="46.67438507" lon="6.79976463"><ele></ele><time>2014-5-13T10:53:54Z</time></trkpt>
<trkpt lat="46.67434216" lon="6.79982901"><ele></ele><time>2014-5-13T10:53:57Z</time></trkpt>
<trkpt lat="46.67419195" lon="6.79997921"><ele></ele><time>2014-5-13T10:54:0Z</time></trkpt>
<trkpt lat="46.67412758" lon="6.80006504"><ele></ele><time>2014-5-13T10:54:3Z</time></trkpt>
<trkpt lat="46.67419195" lon="6.80021524"><ele></ele><time>2014-5-13T10:54:6Z</time></trkpt>
<trkpt lat="46.67457819" lon="6.80070877"><ele></ele><time>2014-5-13T10:54:9Z</time></trkpt>
<trkpt lat="46.67479277" lon="6.80083752"><ele></ele><time>2014-5-13T10:54:12Z</time></trkpt>
<trkpt lat="46.67490005" lon="6.80098772"><ele></ele><time>2014-5-13T10:54:15Z</time></trkpt>
<trkpt lat="46.67490005" lon="6.80103064"><ele></ele><time>2014-5-13T10:54:18Z</time></trkpt>
<trkpt lat="46.67496443" lon="6.80113792"><ele></ele><time>2014-5-13T10:54:21Z</time></trkpt>
<trkpt lat="46.67500734" lon="6.80120230"><ele></ele><time>2014-5-13T10:54:24Z</time></trkpt>
<trkpt lat="46.67500734" lon="6.80120230"><ele></ele><time>2014-5-13T10:54:27Z</time></trkpt>
<trkpt lat="46.67500734" lon="6.80120230"><ele></ele><time>2014-5-13T10:54:30Z</time></trkpt>
<trkpt lat="46.67498589" lon="6.80120230"><ele></ele><time>2014-5-13T10:54:33Z</time></trkpt>
<trkpt lat="46.67498589" lon="6.80124521"><ele></ele><time>2014-5-13T10:54:36Z</time></trkpt>
<trkpt lat="46.67505026" lon="6.80139542"><ele></ele><time>2014-5-13T10:54:39Z</time></trkpt>
<trkpt lat="46.67505026" lon="6.80145979"><ele></ele><time>2014-5-13T10:54:42Z</time></trkpt>
<trkpt lat="46.67505026" lon="6.80145979"><ele></ele><time>2014-5-13T10:54:45Z</time></trkpt>
<trkpt lat="46.67490005" lon="6.80154562"><ele></ele><time>2014-5-13T10:54:48Z</time></trkpt>
<trkpt lat="" lon=""><ele></ele><time>2014-5-13T10:54:51Z</time></trkpt>
<trkpt lat="-" lon=""><ele></ele><time>2014-5-13T10:54:54Z</time></trkpt>
<trkpt lat="46.38977051" lon="7.09442139"><ele></ele><time>2014-5-13T10:54:57Z</time></trkpt>
<trkpt lat="46.37432098" lon="7.07706213"><ele></ele><time>2014-5-13T10:55:0Z</time></trkpt>
<trkpt lat="46.36822701" lon="7.07646132"><ele></ele><time>2014-5-13T10:55:3Z</time></trkpt>
<trkpt lat="46.36088848" lon="7.06169844"><ele></ele><time>2014-5-13T10:55:6Z</time></trkpt>
<trkpt lat="46.35867834" lon="7.04684973"><ele></ele><time>2014-5-13T10:55:9Z</time></trkpt>
<trkpt lat="46.35303497" lon="7.02502728"><ele></ele><time>2014-5-13T10:55:12Z</time></trkpt>
<trkpt lat="46.34582520" lon="7.00927734"><ele></ele><time>2014-5-13T10:55:15Z</time></trkpt>
<trkpt lat="46.33880384" lon="7.00704139"><ele></ele><time>2014-5-13T10:55:18Z</time></trkpt>
<trkpt lat="" lon=""><ele></ele><time>2014-5-13T10:55:21Z</time></trkpt>
<trkpt lat="" lon=""><ele></ele><time>2014-5-13T10:55:24Z</time></trkpt>
<trkpt lat="46.56315755" lon="6.60320263"><ele></ele><time>2014-5-13T10:55:27Z</time></trkpt>
<trkpt lat="46.56310374" lon="6.60283333"><ele></ele><time>2014-5-13T10:55:30Z</time></trkpt>
<trkpt lat="46.56271935" lon="6.60304070"><ele></ele><time>2014-5-13T10:55:33Z</time></trkpt>
<trkpt lat="46.56263351" lon="6.60377026"><ele></ele><time>2014-5-13T10:55:36Z</time></trkpt>
<trkpt lat="46.58082962" lon="6.60587311"><ele></ele><time>2014-5-13T10:55:39Z</time></trkpt>
<trkpt lat="46.58095837" lon="6.60578728"><ele></ele><time>2014-5-13T10:55:42Z</time></trkpt>
<trkpt lat="46.58258915" lon="6.60050869"><ele></ele><time>2014-5-13T10:55:45Z</time></trkpt>
<trkpt lat="46.58267498" lon="6.60020828"><ele></ele><time>2014-5-13T10:55:48Z</time></trkpt>
<trkpt lat="46.58082962" lon="6.59570217"><ele></ele><time>2014-5-13T10:55:51Z</time></trkpt>
<trkpt lat="46.58114126" lon="6.59533186"><ele></ele><time>2014-5-13T10:55:54Z</time></trkpt>
<trkpt lat="" lon=""><ele></ele><time>2014-5-13T10:55:57Z</time></trkpt>
<trkpt lat="" lon=""><ele></ele><time>2014-5-13T10:56:0Z</time></trkpt>
<trkpt lat="46.56315755" lon="6.60320263"><ele></ele><time>2014-5-13T10:56:3Z</time></trkpt>
<trkpt lat="46.56310374" lon="6.60283333"><ele></ele><time>2014-5-13T10:56:6Z</time></trkpt>
<trkpt lat="46.56271935" lon="6.60304070"><ele></ele><time>2014-5-13T10:56:9Z</time></trkpt>
<trkpt lat="46.56263351" lon="6.60377026"><ele></ele><time>2014-5-13T10:56:12Z</time></trkpt>
<trkpt lat="46.55696869" lon="6.60132408"><ele></ele><time>2014-5-13T10:56:15Z</time></trkpt>
<trkpt lat="46.55417919" lon="6.62033558"><ele></ele><time>2014-5-13T10:56:18Z</time></trkpt>
<trkpt lat="46.55143261" lon="6.62093639"><ele></ele><time>2014-5-13T10:56:21Z</time></trkpt>
<trkpt lat="46.55104637" lon="6.62372589"><ele></ele><time>2014-5-13T10:56:24Z</time></trkpt>
<trkpt lat="46.54868603" lon="6.62381172"><ele></ele><time>2014-5-13T10:56:27Z</time></trkpt>
<trkpt lat="46.32123470" lon="6.94001198"><ele></ele><time>2014-5-13T10:56:30Z</time></trkpt>
<trkpt lat="46.32071972" lon="6.93863869"><ele></ele><time>2014-5-13T10:56:33Z</time></trkpt>
<trkpt lat="46.32312298" lon="6.95138454"><ele></ele><time>2014-5-13T10:56:36Z</time></trkpt>
<trkpt lat="46.32719994" lon="6.95898056"><ele></ele><time>2014-5-13T10:56:39Z</time></trkpt>
<trkpt lat="46.31913185" lon="6.97048187"><ele></ele><time>2014-5-13T10:56:42Z</time></trkpt>
<trkpt lat="46.31896019" lon="6.97078228"><ele></ele><time>2014-5-13T10:56:45Z</time></trkpt>
<trkpt lat="46.32183552" lon="7.00073719"><ele></ele><time>2014-5-13T10:56:48Z</time></trkpt>
<trkpt lat="46.36110306" lon="7.04923153"><ele></ele><time>2014-5-13T10:56:51Z</time></trkpt>
<trkpt lat="46.36054516" lon="7.05395222"><ele></ele><time>2014-5-13T10:56:54Z</time></trkpt>
<trkpt lat="46.36256218" lon="7.05051899"><ele></ele><time>2014-5-13T10:56:57Z</time></trkpt>
<trkpt lat="46.35436535" lon="7.03494072"><ele></ele><time>2014-5-13T10:57:0Z</time></trkpt>
<trkpt lat="46.34191990" lon="7.01743126"><ele></ele><time>2014-5-13T10:57:3Z</time></trkpt>
<trkpt lat="46.34264946" lon="7.01352596"><ele></ele><time>2014-5-13T10:57:6Z</time></trkpt>
<trkpt lat="46.34282112" lon="7.01331139"><ele></ele><time>2014-5-13T10:57:9Z</time></trkpt>
<trkpt lat="46.34294987" lon="7.01331139"><ele></ele><time>2014-5-13T10:57:12Z</time></trkpt>
<trkpt lat="46.34307861" lon="7.01271057"><ele></ele><time>2014-5-13T10:57:15Z</time></trkpt>
<trkpt lat="46.34355068" lon="7.01309681"><ele></ele><time>2014-5-13T10:57:18Z</time></trkpt>
<trkpt lat="" lon=""><ele></ele><time>2014-5-13T10:57:21Z</time></trkpt>
</trkseg></trk></gpx>